This demonstration page uses our WeatherBlox Daily Observations layout. Learn more.

Left ArrowRight Arrow

Hourly Observations for April 14, 2016

Temp ( °F °C ) Dew Point ( °F °C ) Humidity (%) Winds ( mph kmh ) Pressure ( in mb ) Visibility ( mi km ) Precip ( " mm )
12:51 am 00:51 Clear 59 15 39 3.9 48 48 N 3 6 29.86 1011 10 16 0.00 0.00
1:51 am 01:51 Clear 55 12.8 40 4.4 57 57 NE 5 7 29.86 1011 10 16 0.00 0.00
2:51 am 02:51 Clear 55 12.8 39 3.9 55 55 ESE 5 7 29.86 1011 10 16 0.00 0.00
3:51 am 03:51 Clear 52 11.1 39 3.9 61 61 SE 5 7 29.87 1011 10 16 0.00 0.00
4:51 am 04:51 Clear 49 9.4 40 4.4 71 71 Calm 29.86 1011 10 16 0.00 0.00
5:51 am 05:51 Sunny 48 8.9 39 3.9 71 71 Calm 29.88 1012 10 16 0.00 0.00
6:51 am 06:51 Sunny 54 12.2 39 3.9 57 57 Calm 29.89 1012 10 16 0.00 0.00
7:51 am 07:51 Sunny 65 18.3 37 2.8 36 36 ESE 9 15 29.87 1012 10 16 0.00 0.00
8:51 am 08:51 Sunny 69 20.6 35 1.7 29 29 SE 9 15 29.87 1011 10 16 0.00 0.00
9:51 am 09:51 Sunny 72 22.2 35 1.7 26 26 SSE 7 11 29.85 1011 10 16 0.00 0.00
10:51 am 10:51 Sunny 76 24.4 34 1.1 22 22 VRB 3 6 29.83 1010 10 16 0.00 0.00
11:51 am 11:51 Sunny 79 26.1 33 0.6 19 19 VRB 5 7 29.80 1009 10 16 0.00 0.00
12:51 pm 12:51 Sunny 83 28.3 33 0.6 17 17 VRB 6 9 29.74 1007 10 16 0.00 0.00
1:51 pm 13:51 Sunny 83 28.3 31 -0.6 15 15 ENE 3 6 29.72 1006 10 16 0.00 0.00
2:51 pm 14:51 Sunny 85 29.4 31 -0.6 14 14 W 9 15 29.67 1005 10 16 0.00 0.00
3:51 pm 15:51 Sunny 84 28.9 30 -1.1 14 14 SSW 5 7 29.65 1004 10 16 0.00 0.00
4:51 pm 16:51 Sunny 85 29.4 28 -2.2 13 13 SW 5 7 29.63 1003 10 16 0.00 0.00
5:51 pm 17:51 Sunny 83 28.3 27 -2.8 13 13 W 8 13 29.63 1003 10 16 0.00 0.00
6:51 pm 18:51 Clear 80 26.7 28 -2.2 15 15 W 13 20 29.61 1003 10 16 0.00 0.00
7:51 pm 19:51 Clear 75 23.9 31 -0.6 20 20 NW 12 19 29.61 1003 10 16 0.00 0.00
8:51 pm 20:51 Clear 72 22.2 32 0 23 23 NW 9 15 29.62 1003 10 16 0.00 0.00
9:51 pm 21:51 Clear 71 21.7 32 0 24 24 NW 6 9 29.61 1003 10 16 0.00 0.00
10:51 pm 22:51 Clear 69 20.6 33 0.6 26 26 WNW 9 15 29.60 1002 10 16 0.00 0.00
11:51 pm 23:51 Clear 70 21.1 32 0 25 25 WNW 18 30 29.60 1003 10 16 0.00 0.00

Powered by AerisWeather